Regional Weather Roundup
Issued by NWS

Home | Current Version | Previous Version | Text Only | Print | Product List | Glossary Off
Versions: 1 2 3 4 5 6 7 8 9 10 11 12 13 14 15 16 17 18 19 20 21 22 23 24 25 26 27 28 29 30 31 32 33 34 35 36 37 38 39 40 41 42 43 44 45 46 47 48 49 50

000
ASUS45 KPSR 302010
RWRAZ

ARIZONA HOURLY REGIONAL WEATHER ROUNDUP
NATIONAL WEATHER SERVICE PHOENIX AZ
100 PM MST SUN AUG 30 2015

NOTE: FAIR INDICATES FEW OR NO CLOUDS BELOW 12,000 FEET WITH NO
SIGNIFICANT WEATHER AND/OR OBSTRUCTIONS TO VISIBILITY.

AZZ001>003-036-302100-
NORTHWEST ARIZONA

CITY           SKY/WX    TMP DP  RH WIND       PRES   REMARKS
BULLHEAD CITY  SUNNY    104  48  15 S12       29.77F HX 100
KINGMAN        MOSUNNY   96  52  22 S23G33    29.99F
$$

AZZ004>008-015-016-018-302100-
NORTH CENTRAL ARIZONA

CITY           SKY/WX    TMP DP  RH WIND       PRES   REMARKS
GRAND CANYON   PTSUNNY   76  54  46 E8G16     30.25F
WILLIAMS       PTSUNNY   75  52  43 SW13G23   30.31F
PRESCOTT       LGT RAIN  79  60  52 VRB3      30.14F
FLAGSTAFF      PTSUNNY   77  53  43 SW21G26   30.29F
PAYSON         MOSUNNY   86  54  32 VRB5      30.17F
PAGE           PTSUNNY   87  52  29 N12       30.03F
$$

AZZ009>014-017-302100-
NORTHEAST ARIZONA

CITY           SKY/WX    TMP DP  RH WIND       PRES   REMARKS
WINSLOW        CLOUDY    82  55  39 NW20G29   30.10F THUNDER
SAINT JOHNS    PTSUNNY   83  50  31 W10       30.20F
WINDOW ROCK    LGT RAIN  74  56  53 N8        30.25F
SHOW LOW       MOSUNNY   79  46  31 W8        30.26F
$$

AZZ023-302100-
GREATER PHOENIX AREA

CITY           SKY/WX    TMP DP  RH WIND       PRES   REMARKS
PHOENIX        MOSUNNY  105  56  19 S8        29.83F HX 104
BUCKEYE        SUNNY    102  57  22 S5        29.83F HX 101
GLENDALE       MOSUNNY  102  57  22 SE5       29.85F HX 101
DEER VALLEY    SUNNY    101  56  22 S9        29.85F HX 100
SCOTTSDALE     SUNNY    101  55  21 S8        29.88F
MESA-FALCON    MOSUNNY  104  55  20 SE9       29.86  HX 103
MESA-GATEWAY   MOSUNNY   99  57  25 CALM      29.89F
CHANDLER       MOSUNNY  102  59  24 S9        29.86F HX 102
$$

AZZ027-028-302100-
SOUTHWEST MARICOPA COUNTY AND PINAL COUNTY

CITY           SKY/WX    TMP DP  RH WIND       PRES   REMARKS
CASA GRANDE    SUNNY    102  57  22 CALM      29.86F HX 101
$$

AZZ503-504-507>509-302100-
SOUTHEAST ARIZONA

CITY           SKY/WX    TMP DP  RH WIND       PRES   REMARKS
TUCSON         MOSUNNY   95  56  26 W5        29.99F
RYAN FIELD     SUNNY     97  61  30 CALM      29.97F
NOGALES        PTSUNNY   94  57  28 NE6       30.07F
SIERRA VISTA   PTSUNNY   85  57  38 SW6       30.15
DOUGLAS        SUNNY     89  56  32 VRB3      30.10F
SAFFORD        SUNNY     93  53  25 VRB7      30.01F
$$

AZZ020-021-025-026-031-302100-
SOUTHWEST ARIZONA

CITY           SKY/WX    TMP DP  RH WIND       PRES   REMARKS
YUMA           SUNNY    108  48  13 SW6       29.76F HX 104
$$

CAZ031-033-041-043-047-048-061-302100-
SOUTHERN CALIFORNIA

CITY           SKY/WX    TMP DP  RH WIND       PRES   REMARKS
DOWNTOWN L.A.  SUNNY     87  67  51 CALM      29.88F
L.A. AIRPORT   MOSUNNY   79  67  66 W12       29.90F
SAN DIEGO      MOSUNNY   80  66  62 SW8       29.92F
BURBANK        SUNNY     90  63  40 S12       29.89F
ONTARIO        MOSUNNY   91  60  35 SW10      29.90F
RIVERSIDE      SUNNY     93  60  33 VRB7      29.89F
PALM SPRINGS   SUNNY    107  45  12 MISG      29.78F HX 102
EL CENTRO NAS  SUNNY    108  41  10 VRB3      29.75F HX 102
IMPERIAL       SUNNY    109  44  11 SE8       29.73F HX 104
BLYTHE         SUNNY    106  51  16 VRB6      29.76F HX 103
NEEDLES        SUNNY    108  46  12 W8G18     29.78F HX 104
$$

NVZ020-UTZ003-302100-
SOUTHERN NEVADA-UTAH

CITY           SKY/WX    TMP DP  RH WIND       PRES   REMARKS
LAS VEGAS      PTSUNNY  100  44  14 S16G23    29.82F
SALT LAKE CITY PTSUNNY   84  47  27 N12       29.95F
$$

NMZ009-TXZ055-302100-
NEW MEXICO-WEST TEXAS

CITY           SKY/WX    TMP DP  RH WIND       PRES   REMARKS
ALBUQUERQUE    MOSUNNY   86  46  24 W6        30.18F
EL PASO        MOSUNNY   89  51  27 SE9       30.10F
$$


........................KEY........................
SKY/WX - SKY CONDITION/WEATHER
TMP    - TEMPERATURE IN FAHRENHEIT
DP     - DEW POINT IN FAHRENHEIT
RH     - RELATIVE HUMIDITY IN PERCENT
WIND   - DIRECTION AND SPEED IN MILES PER HOUR (MPH)
VRB    - VARIABLE WIND DIRECTION
PRES   - MEAN SEA LEVEL PRESSURE IN INCHES OF MERCURY
         F - FALLING PRESSURE   R - RISING PRESSURE
         S - STEADY PRESSURE
VSB    - VISIBILITY IN MILES
HX     - HEAT INDEX IN FAHRENHEIT
WCI    - WIND CHILL INDEX IN FAHRENHEIT
TC     - TEMPERATURE IN CELSIUS WHICH IS ALSO KNOWN AS
         TEMPERATURE IN CENTIGRADE
AFB    - AIR FORCE BASE
         LUKE AFB IS LUKE AIR FORCE BASE
         DAVIS-MONTHAN IS DAVIS-MONTHAN AIR FORCE BASE
NAS    - NAVAL AIR STATION
         EL CENTRO NAS IS EL CENTRO NAVAL AIR STATION
N/A    - NOT AVAILABLE




USA.gov is the U.S. government's official web portal to all federal, state and local government web resources and services.